User: anonymous   Login
Location: Caltech
(34.1382°N, 118.1253°W)
Time: 14:26:01
(UTC-07:00)
Language:

Iridium 94 - Orbit

View from above orbital plane
View from above orbital plane
View from above satellite
View from above satellite

Ground track
Ground track

The orbit data is extracted from the following two-line orbital elements,

1 27374U 02005C   16237.48507841  .00000099  00000-0  28173-4 0  9999
2 27374  86.3973  19.7544 0001543  72.3994 352.0782 14.34216141773425
Epoch (UTC): 24 August 2016 11:38:30
Eccentricity: 0.0001543
inclination: 86.3973°
perigee height: 776 km
apogee height: 779 km
right ascension of ascending node: 19.7544°
argument of perigee: 72.3994°
revolutions per day: 14.34216141
mean anomaly at epoch: 352.0782°
orbit number at epoch: 77342

The dashed part of the orbit path shows where the satellite is in the earth's shadow,  

DLR